Date String (YYYY-MM-DD hh:mm:ss) UTC,Instrument flags,Ambient pressure (hPa),Sample flow (lpm),Bypass flow (lpm),Sample temperature (°C),Ambient temperature (°C),ASC tube jacket temperature (°C),LED temperature (°C),Box temperature (°C),Sample RH (%),Span deviation,Mass concentration (μg/m³),Mass concentration (μg/m³),Mass concentration (μg/m³)
DateTimeUTC,F1_M11,P_M11,Q1_M11,Q2_M11,T1_M11,T2_M11,T3_M11,T4_M11,T5_M11,U1_M11,ZSPAN_M11,X0_M11,X2_M11,X1_M11
2022-08-06 20:00:00,,0827.9,5.01,0.00,30.6,27.4,00.0,39.1,31.6,34.6,0000.0,0019.76,0008.63,0007.09
2022-08-06 20:01:00,,0827.8,4.98,0.00,30.5,27.5,00.0,39.0,31.5,35.0,0000.0,0020.60,0008.67,0007.06
2022-08-06 20:02:00,,0827.8,5.00,0.00,30.5,27.7,00.0,39.0,31.6,34.8,0000.3,0020.34,0008.67,0007.02
2022-08-06 20:03:00,,0827.7,5.01,0.00,30.6,27.9,00.0,39.0,31.7,34.7,0000.0,0020.82,0008.62,0007.01
2022-08-06 20:04:00,,0827.8,5.00,0.00,30.6,28.1,00.0,39.0,31.8,34.4,0000.4,0020.55,0008.62,0007.01
2022-08-06 20:05:00,,0827.7,4.99,0.00,30.6,28.2,00.0,39.0,31.9,34.4,0000.0,0021.74,0008.62,0007.01
2022-08-06 20:06:00,,0827.7,5.00,0.00,30.6,28.1,00.0,39.0,31.8,34.5,0000.0,0021.74,0008.56,0007.01
2022-08-06 20:07:00,,0827.7,4.99,0.00,30.6,27.5,00.0,39.0,31.6,34.5,0000.0,0022.22,0008.50,0007.00
2022-08-06 20:08:00,,0827.7,5.00,0.00,30.5,27.3,00.0,39.0,31.6,34.8,0000.0,0022.65,0008.49,0007.02
2022-08-06 20:09:00,,0827.7,4.99,0.00,30.5,27.3,00.0,38.9,31.6,35.3,0000.0,0022.94,0008.60,0007.08
2022-08-06 20:10:00,,0827.7,5.01,0.00,30.6,27.4,00.0,38.9,31.6,35.1,0000.0,0022.80,0008.61,0007.09
2022-08-06 20:11:00,,0827.7,4.99,0.00,30.8,27.6,00.0,38.9,31.8,34.1,0000.0,0022.91,0008.63,0007.08
2022-08-06 20:12:00,,0827.7,5.01,0.00,30.9,27.8,00.0,38.9,31.9,33.8,0000.0,0023.15,0008.61,0007.09
2022-08-06 20:13:00,,0827.7,5.00,0.00,31.0,28.0,00.0,39.0,31.9,33.6,0000.0,0023.62,0008.58,0007.10
2022-08-06 20:14:00,,0827.7,4.99,0.00,31.0,28.2,00.0,39.0,31.9,33.4,0000.0,0023.92,0008.57,0007.10
2022-08-06 20:15:00,,0827.7,5.00,0.00,31.1,28.1,00.0,39.1,31.9,33.3,0000.0,0025.53,0008.58,0007.09
2022-08-06 20:16:00,,0827.7,4.99,0.00,31.0,27.5,00.0,39.1,31.7,33.3,0000.3,0025.50,0008.61,0007.11
2022-08-06 20:17:00,,0827.7,5.02,0.00,31.0,27.3,00.0,39.1,31.7,33.6,0000.8,0025.52,0008.65,0007.12
2022-08-06 20:18:00,,0827.6,4.99,0.00,30.9,27.3,00.0,39.1,31.6,34.3,0000.7,0026.30,0008.75,0007.16
2022-08-06 20:19:00,,0827.6,5.01,0.00,30.7,27.4,00.0,39.1,31.6,34.8,0000.9,0026.32,0008.90,0007.20
2022-08-06 20:20:00,,0827.6,4.99,0.00,30.7,27.6,00.0,39.1,31.6,34.6,0000.7,0025.01,0008.93,0007.23
2022-08-06 20:21:00,,0827.6,5.01,0.00,30.7,27.8,00.0,39.1,31.7,34.3,0001.0,0023.85,0008.96,0007.27
2022-08-06 20:22:00,,0827.6,4.99,0.00,30.7,28.0,00.0,39.1,31.8,34.2,0001.2,0023.36,0009.01,0007.34
2022-08-06 20:23:00,,0827.7,4.99,0.00,30.7,28.2,00.0,39.1,31.8,34.3,0001.2,0022.80,0009.16,0007.42
2022-08-06 20:24:00,,0827.6,5.01,0.00,30.7,28.1,00.0,39.1,31.8,34.8,0001.2,0023.17,0009.24,0007.50
2022-08-06 20:25:00,,0827.6,4.99,0.00,30.7,27.6,00.0,39.1,31.7,34.6,0001.3,0023.57,0009.28,0007.57
2022-08-06 20:26:00,,0827.7,5.01,0.00,30.6,27.3,00.0,39.1,31.6,34.7,0001.3,0022.72,0009.35,0007.65
2022-08-06 20:27:00,,0827.5,5.00,0.00,30.6,27.3,00.0,39.0,31.6,34.8,0001.9,0022.02,0009.42,0007.76
2022-08-06 20:28:00,,0827.5,5.00,0.00,30.5,27.5,00.0,39.0,31.5,35.1,0002.5,0022.22,0009.50,0007.85
2022-08-06 20:29:00,,0827.5,4.99,0.00,30.6,27.6,00.0,39.0,31.6,34.8,0002.2,0023.26,0009.51,0007.90
2022-08-06 20:30:00,,0827.5,5.00,0.00,30.7,27.8,00.0,39.0,31.8,34.2,0000.0,0024.41,0009.51,0007.92
2022-08-06 20:31:00,,0827.5,5.00,0.00,30.8,28.0,00.0,39.0,31.9,34.3,0002.4,0024.68,0009.50,0007.94
2022-08-06 20:32:00,,0827.5,4.99,0.00,30.9,28.2,00.0,39.0,31.9,34.4,0001.3,0024.88,0009.54,0007.96
2022-08-06 20:33:00,,0827.5,5.01,0.00,30.9,27.8,00.0,39.0,31.8,34.3,0000.0,0025.58,0009.62,0007.99
2022-08-06 20:34:00,,0827.5,5.00,0.00,30.8,27.4,00.0,39.0,31.7,34.4,0000.5,0025.59,0009.65,0008.03
2022-08-06 20:35:00,,0827.5,4.99,0.00,30.8,27.3,00.0,39.0,31.6,34.1,0001.8,0025.90,0009.70,0008.05
2022-08-06 20:36:00,,0827.5,5.01,0.00,30.7,27.4,00.0,39.0,31.6,34.0,0002.0,0024.65,0009.78,0008.07
2022-08-06 20:37:00,,0827.5,5.00,0.00,30.6,27.5,00.0,39.0,31.5,33.8,0002.0,0023.83,0009.79,0008.09
2022-08-06 20:38:00,,0827.4,5.00,0.00,30.6,27.7,00.0,39.0,31.6,34.2,0002.1,0023.40,0009.77,0008.06
2022-08-06 20:39:00,,0827.5,5.00,0.00,30.6,27.9,00.0,39.0,31.7,34.2,0001.8,0023.53,0009.77,0008.03
2022-08-06 20:40:00,,0827.4,5.00,0.00,30.6,28.1,00.0,39.0,31.7,34.2,0001.5,0022.21,0009.79,0008.03
2022-08-06 20:41:00,,0827.5,4.99,0.00,30.6,28.3,00.0,39.0,31.8,34.3,0002.0,0021.72,0009.76,0008.05
2022-08-06 20:42:00,,0827.5,5.00,0.00,30.6,27.9,00.0,39.0,31.7,33.9,0001.7,0022.05,0009.79,0008.06
2022-08-06 20:43:00,,0827.5,5.00,0.00,30.5,27.4,00.0,39.0,31.6,34.0,0001.7,0022.31,0009.87,0008.09
2022-08-06 20:44:00,,0827.5,5.02,0.00,30.4,27.3,00.0,39.0,31.6,34.2,0001.7,0022.28,0009.89,0008.09
2022-08-06 20:45:00,,0827.5,4.98,0.00,30.4,27.4,00.0,38.9,31.5,34.4,0001.3,0022.92,0009.88,0008.09
2022-08-06 20:46:00,,0827.5,5.01,0.00,30.3,27.5,00.0,38.9,31.5,34.8,0001.9,0021.83,0009.82,0008.10
2022-08-06 20:47:00,,0827.5,5.00,0.00,30.3,27.7,00.0,38.9,31.5,34.9,0001.9,0021.58,0009.79,0008.11
2022-08-06 20:48:00,,0827.5,5.00,0.00,30.3,27.9,00.0,38.9,31.6,35.0,0000.0,0021.56,0009.75,0008.11
2022-08-06 20:49:00,,0827.5,5.00,0.00,30.4,28.2,00.0,38.9,31.8,35.1,0000.0,0022.11,0009.75,0008.11
2022-08-06 20:50:00,,0827.6,4.99,0.00,30.6,28.1,00.0,38.9,31.8,34.6,0000.0,0022.11,0009.75,0008.11
2022-08-06 20:51:00,,0827.7,5.01,0.00,30.7,27.5,00.0,38.8,31.8,33.9,0000.0,0021.47,0009.73,0008.09
2022-08-06 20:52:00,,0827.6,5.00,0.00,30.7,27.2,00.0,38.8,31.7,33.6,0000.0,0020.66,0009.70,0008.07
2022-08-06 20:53:00,,0827.7,5.00,0.00,30.7,27.2,00.0,38.8,31.6,33.6,0001.8,0021.06,0009.69,0008.05
2022-08-06 20:54:00,,0827.7,5.00,0.00,30.6,27.3,00.0,38.8,31.5,33.8,0002.4,0020.79,0009.58,0008.03
2022-08-06 20:55:00,,0827.7,5.01,0.00,30.6,27.6,00.0,38.9,31.5,33.8,0002.5,0020.24,0009.54,0008.01
2022-08-06 20:56:00,,0827.6,4.99,0.00,30.6,27.8,00.0,38.9,31.6,33.6,0002.6,0019.44,0009.50,0007.99
2022-08-06 20:57:00,,0827.5,5.00,0.00,30.6,28.0,00.0,38.9,31.7,33.4,0001.7,0020.22,0009.50,0007.98
2022-08-06 20:58:00,,0827.6,5.00,0.00,30.6,28.2,00.0,38.9,31.8,33.6,0000.4,0021.87,0009.53,0007.96
2022-08-06 20:59:00,,0827.5,5.00,0.00,30.6,27.9,00.0,38.9,31.7,33.6,0002.2,0023.58,0009.54,0007.94
